Temp
-11 -11 -11 -11 -11 -10 -10 -9 -10 -11 -13 -14 -15 -15 -15 -15 -15 -15 -15 -15 -15 -15 -15 -15 -15 -14 -14 -14 -13 -13 -12 -12 -12 -12 -11 -12 -11 -11 -12 -11 -11 -11 -11 -11 -10 -10 -10 -11 -11
-11 -11 -11 -11 -11 -10 -10 -10 -12 -13 -14 -15 -15 -15 -15 -15 -15 -15 -14 -15 -15 -15 -15 -15 -15 -15 -14 -14 -13 -13 -13 -12 -12 -12 -11 -12 -11 -12 -12 -11 -11 -11 -11 -11 -11 -11 -11 -10 -11
-11 -11 -11 -11 -11 -10 -10 -11 -13 -14 -15 -15 -15 -14 -14 -14 -15 -14 -14 -14 -14 -14 -15 -15 -15 -15 -14 -14 -14 -14 -13 -13 -12 -12 -11 -11 -11 -11 -11 -12 -11 -11 -11 -11 -11 -11 -11 -11 -10
-11 -11 -11 -11 -11 -10 -10 -11 -13 -14 -14 -14 -14 -13 -14 -14 -14 -14 -14 -14 -14 -14 -15 -14 -14 -14 -14 -14 -13 -13 -13 -13 -12 -12 -12 -12 -12 -12 -12 -12 -11 -12 -12 -12 -11 -11 -11 -11 -11
-12 -12 -12 -11 -11 -11 -11 -12 -13 -14 -14 -14 -13 -13 -14 -14 -14 -14 -14 -14 -14 -14 -14 -14 -13 -13 -14 -13 -14 -13 -13 -13 -13 -12 -11 -12 -12 -12 -11 -12 -12 -12 -12 -12 -11 -11 -11 -11 -11
-12 -12 -12 -11 -11 -11 -11 -12 -13 -14 -14 -14 -14 -14 -14 -14 -14 -15 -14 -15 -14 -13 -13 -14 -13 -13 -14 -13 -13 -13 -12 -13 -13 -12 -11 -12 -12 -11 -12 -12 -12 -13 -12 -12 -12 -12 -12 -12 -12
-12 -12 -11 -11 -11 -12 -13 -13 -14 -14 -13 -14 -14 -13 -13 -14 -14 -14 -14 -15 -13 -13 -13 -13 -13 -13 -12 -11 -12 -12 -13 -12 -12 -12 -11 -12 -12 -11 -12 -12 -12 -13 -13 -13 -12 -12 -12 -12 -12
-12 -12 -12 -11 -12 -12 -13 -14 -14 -14 -14 -14 -14 -13 -13 -13 -13 -14 -14 -14 -15 -13 -12 -13 -13 -13 -12 -12 -11 -12 -11 -12 -12 -12 -12 -12 -12 -11 -12 -12 -12 -13 -13 -13 -12 -12 -12 -12 -12
-12 -12 -12 -11 -11 -13 -13 -13 -14 -14 -13 -14 -14 -14 -13 -13 -13 -13 -13 -13 -14 -13 -12 -12 -12 -12 -12 -11 -11 -12 -11 -11 -11 -12 -11 -12 -11 -12 -11 -12 -12 -13 -13 -13 -13 -12 -12 -12 -12
-12 -12 -11 -12 -12 -12 -14 -13 -14 -13 -13 -14 -14 -14 -13 -13 -13 -12 -12 -12 -13 -13 -13 -12 -12 -12 -11 -11 -12 -11 -11 -11 -11 -11 -11 -12 -12 -12 -11 -12 -12 -13 -13 -13 -13 -12 -12 -13 -12
-12 -12 -11 -12 -11 -12 -13 -14 -14 -13 -13 -14 -14 -14 -14 -13 -12 -12 -11 -12 -12 -13 -13 -13 -12 -11 -11 -10 -11 -11 -11 -12 -12 -11 -12 -12 -12 -12 -12 -12 -13 -13 -12 -13 -13 -13 -12 -13 -13
-12 -13 -12 -12 -12 -12 -13 -14 -14 -14 -14 -14 -14 -14 -14 -13 -13 -12 -12 -11 -12 -12 -13 -12 -12 -11 -10 -11 -11 -11 -12 -12 -12 -11 -12 -12 -12 -12 -12 -12 -13 -13 -13 -13 -13 -13 -13 -13 -13
-12 -13 -12 -12 -12 -13 -13 -13 -14 -14 -14 -14 -14 -13 -14 -14 -13 -13 -12 -11 -11 -11 -12 -12 -12 -11 -11 -9 -9 -11 -12 -12 -12 -12 -12 -12 -12 -12 -12 -12 -12 -12 -13 -13 -13 -14 -14 -14 -14
-13 -13 -12 -12 -11 -13 -13 -13 -14 -14 -15 -14 -14 -13 -14 -14 -13 -12 -11 -11 -11 -11 -11 -12 -12 -11 -11 -11 -11 -12 -12 -12 -12 -12 -12 -12 -12 -12 -12 -12 -12 -12 -13 -13 -13 -14 -14 -14 -15
-13 -13 -12 -12 -12 -13 -13 -13 -14 -14 -14 -14 -14 -13 -14 -13 -13 -12 -11 -11 -11 -11 -11 -11 -12 -11 -12 -12 -11 -12 -12 -12 -12 -11 -11 -11 -12 -12 -12 -12 -12 -12 -13 -13 -14 -14 -14 -14 -15
-13 -13 -13 -12 -12 -13 -14 -13 -13 -14 -14 -14 -14 -14 -14 -13 -14 -13 -11 -11 -11 -11 -11 -11 -11 -11 -11 -12 -12 -12 -12 -12 -11 -11 -12 -12 -12 -12 -12 -12 -13 -13 -13 -14 -14 -14 -15 -16 -16
-13 -13 -13 -12 -13 -13 -14 -14 -13 -14 -14 -14 -14 -14 -14 -15 -15 -14 -13 -12 -12 -11 -10 -11 -11 -11 -12 -11 -12 -12 -12 -11 -12 -11 -12 -12 -12 -13 -12 -13 -13 -13 -14 -14 -14 -15 -15 -17 -17
-14 -13 -13 -13 -13 -12 -13 -14 -13 -14 -14 -14 -14 -15 -14 -15 -15 -15 -14 -13 -12 -11 -11 -11 -11 -11 -12 -12 -12 -12 -12 -12 -12 -12 -12 -13 -12 -13 -13 -13 -13 -13 -14 -15 -15 -16 -17 -17 -17
-13 -12 -13 -13 -14 -12 -13 -13 -13 -13 -13 -14 -15 -14 -14 -14 -14 -14 -14 -13 -12 -12 -11 -11 -11 -11 -12 -12 -12 -12 -13 -13 -13 -12 -13 -13 -13 -13 -13 -13 -13 -13 -14 -15 -15 -17 -17 -17 -16
-13 -12 -13 -13 -14 -12 -13 -13 -13 -13 -13 -13 -15 -15 -14 -14 -14 -15 -15 -14 -13 -13 -13 -12 -12 -12 -12 -12 -12 -12 -13 -12 -13 -13 -13 -13 -13 -13 -13 -13 -14 -14 -15 -16 -16 -16 -16 -16 -16
-13 -13 -13 -14 -14 -13 -12 -13 -13 -13 -13 -13 -14 -15 -14 -14 -15 -14 -14 -15 -15 -14 -14 -13 -13 -12 -13 -13 -13 -12 -12 -12 -12 -13 -13 -13 -14 -14 -14 -14 -14 -15 -15 -16 -16 -16 -16 -16 -16
-13 -14 -14 -14 -14 -13 -13 -12 -13 -13 -13 -13 -13 -14 -15 -14 -15 -15 -14 -14 -15 -15 -15 -14 -14 -14 -13 -13 -13 -13 -13 -13 -13 -13 -13 -14 -14 -14 -15 -15 -15 -15 -15 -16 -16 -16 -16 -16 -16
-14 -15 -15 -14 -13 -13 -13 -13 -13 -13 -13 -14 -14 -14 -14 -14 -14 -15 -14 -14 -14 -15 -15 -14 -14 -13 -13 -14 -14 -14 -14 -14 -14 -14 -14 -14 -14 -15 -15 -15 -15 -15 -16 -16 -15 -16 -16 -16 -16
-14 -14 -14 -14 -13 -12 -13 -13 -13 -13 -13 -13 -13 -14 -14 -14 -14 -14 -14 -14 -14 -14 -15 -14 -14 -14 -14 -14 -14 -14 -14 -14 -14 -14 -14 -15 -14 -15 -15 -15 -15 -16 -16 -16 -15 -15 -16 -17 -17
-14 -13 -13 -13 -13 -12 -13 -13 -13 -13 -13 -14 -13 -13 -13 -13 -14 -14 -14 -14 -14 -14 -15 -15 -15 -15 -15 -14 -14 -14 -14 -15 -15 -15 -15 -15 -15 -15 -15 -15 -15 -15 -15 -15 -16 -16 -17 -16 -16
-14 -14 -14 -14 -13 -13 -13 -13 -12 -14 -13 -14 -14 -14 -14 -14 -14 -14 -14 -14 -14 -14 -14 -15 -15 -15 -15 -15 -15 -15 -15 -15 -15 -15 -15 -15 -15 -15 -15 -15 -15 -15 -16 -16 -16 -16 -16 -17 -16
-14 -14 -14 -14 -14 -14 -13 -12 -13 -14 -13 -14 -15 -14 -14 -14 -14 -14 -14 -14 -14 -14 -14 -15 -15 -15 -15 -15 -15 -15 -15 -15 -15 -15 -15 -15 -15 -15 -16 -16 -16 -16 -16 -16 -16 -17 -17 -16 -15
-14 -15 -15 -14 -14 -14 -12 -12 -13 -13 -13 -14 -14 -15 -14 -14 -14 -14 -14 -15 -15 -15 -15 -15 -15 -15 -15 -15 -15 -15 -15 -15 -15 -15 -15 -15 -16 -16 -16 -16 -16 -16 -15 -16 -16 -16 -16 -15 -15
-14 -14 -14 -14 -13 -13 -13 -12 -13 -14 -13 -13 -14 -15 -15 -15 -14 -14 -14 -15 -15 -15 -15 -15 -15 -15 -15 -15 -16 -15 -15 -15 -15 -16 -16 -16 -16 -16 -16 -16 -16 -15 -15 -15 -15 -15 -16 -15 -15
-15 -15 -15 -15 -14 -14 -13 -12 -13 -14 -13 -13 -13 -14 -14 -15 -14 -14 -15 -16 -15 -15 -15 -15 -15 -15 -15 -16 -15 -15 -15 -15 -15 -15 -15 -16 -16 -16 -16 -15 -15 -15 -15 -15 -16 -16 -15 -15 -16
Height
5810 5807 5804 5801 5801 5795 5792 5789 5785 5782 5780 5777 5775 5774 5774 5772 5771 5772 5769 5771 5770 5770 5771 5773 5775 5780 5781 5785 5789 5795 5798 5804 5805 5809 5809 5811 5815 5819 5822 5826 5829 5831 5833 5835 5838 5839 5839 5840 5840
5805 5803 5800 5797 5795 5791 5788 5784 5781 5777 5775 5773 5772 5771 5770 5768 5767 5766 5766 5766 5766 5766 5766 5767 5769 5772 5775 5778 5784 5788 5792 5796 5801 5805 5806 5806 5810 5816 5820 5823 5826 5830 5832 5833 5835 5835 5836 5837 5839
5802 5799 5797 5793 5789 5786 5783 5779 5776 5773 5772 5770 5769 5768 5767 5764 5762 5761 5760 5760 5761 5758 5758 5758 5761 5765 5768 5772 5775 5781 5784 5789 5796 5800 5802 5802 5807 5812 5816 5820 5823 5827 5829 5830 5832 5833 5834 5835 5835
5798 5796 5794 5790 5785 5781 5777 5774 5773 5770 5768 5766 5765 5764 5763 5759 5756 5756 5754 5755 5753 5751 5750 5744 5751 5756 5762 5764 5769 5774 5778 5783 5788 5792 5800 5802 5803 5808 5810 5816 5821 5824 5826 5828 5830 5829 5830 5830 5831
5795 5793 5789 5785 5782 5778 5771 5769 5769 5767 5766 5763 5760 5758 5757 5753 5751 5749 5747 5744 5742 5740 5741 5742 5744 5743 5752 5755 5761 5766 5774 5780 5782 5789 5795 5798 5800 5805 5807 5814 5818 5821 5822 5824 5826 5826 5825 5825 5826
5791 5789 5785 5782 5779 5772 5767 5768 5766 5763 5763 5759 5756 5753 5752 5748 5747 5745 5741 5737 5734 5731 5727 5732 5738 5745 5743 5748 5754 5759 5768 5774 5779 5785 5792 5794 5799 5802 5804 5810 5815 5817 5818 5821 5821 5821 5820 5821 5821
5788 5785 5781 5779 5775 5768 5764 5765 5763 5761 5758 5755 5752 5750 5748 5744 5742 5740 5737 5733 5729 5725 5728 5730 5732 5735 5734 5741 5751 5752 5759 5765 5773 5779 5787 5792 5796 5799 5802 5806 5809 5813 5816 5818 5818 5817 5816 5817 5819
5784 5781 5777 5775 5770 5765 5761 5760 5760 5759 5755 5751 5749 5747 5744 5741 5738 5736 5732 5730 5726 5724 5724 5727 5729 5731 5734 5737 5741 5748 5753 5759 5767 5775 5781 5787 5790 5795 5799 5801 5806 5810 5813 5813 5813 5814 5813 5813 5814
5780 5777 5774 5771 5765 5762 5759 5757 5758 5757 5751 5748 5745 5742 5739 5737 5735 5732 5730 5729 5725 5723 5722 5724 5725 5725 5726 5730 5740 5745 5750 5754 5761 5767 5774 5781 5786 5791 5794 5799 5803 5807 5809 5810 5809 5811 5811 5809 5809
5776 5774 5771 5767 5760 5758 5758 5755 5756 5754 5748 5744 5742 5739 5737 5733 5730 5729 5727 5727 5726 5723 5722 5721 5724 5724 5727 5730 5734 5733 5743 5751 5755 5761 5770 5777 5781 5786 5791 5795 5799 5802 5804 5804 5806 5807 5808 5807 5805
5773 5770 5767 5761 5758 5755 5755 5753 5753 5751 5746 5741 5739 5736 5732 5729 5727 5725 5725 5723 5724 5722 5723 5724 5722 5717 5719 5721 5725 5731 5737 5746 5753 5758 5766 5772 5779 5782 5786 5791 5795 5796 5798 5800 5802 5802 5803 5803 5802
5769 5767 5764 5760 5756 5753 5753 5752 5751 5747 5741 5739 5737 5733 5728 5724 5723 5722 5723 5721 5722 5721 5723 5723 5722 5718 5717 5719 5720 5722 5730 5739 5749 5753 5760 5768 5775 5780 5783 5787 5788 5790 5793 5794 5796 5798 5798 5799 5798
5766 5764 5761 5757 5754 5751 5753 5751 5746 5743 5739 5736 5733 5730 5726 5723 5721 5720 5720 5721 5719 5719 5721 5721 5722 5718 5714 5714 5716 5714 5725 5734 5744 5750 5756 5765 5772 5774 5780 5784 5784 5785 5787 5789 5790 5792 5792 5793 5793
5762 5760 5757 5756 5751 5749 5750 5749 5744 5742 5737 5735 5732 5726 5724 5723 5719 5717 5716 5718 5719 5718 5721 5722 5723 5721 5717 5715 5713 5718 5728 5736 5742 5750 5755 5761 5765 5770 5776 5778 5779 5781 5783 5784 5785 5786 5786 5786 5787
5757 5755 5752 5751 5748 5746 5747 5748 5742 5739 5736 5735 5731 5726 5723 5720 5717 5715 5714 5714 5716 5716 5718 5720 5721 5721 5720 5719 5718 5725 5732 5740 5746 5750 5754 5756 5760 5765 5770 5772 5775 5778 5780 5779 5779 5782 5782 5783 5783
5754 5752 5748 5748 5745 5744 5745 5747 5742 5737 5736 5734 5730 5724 5721 5719 5715 5711 5710 5712 5713 5715 5716 5719 5720 5720 5722 5724 5725 5730 5734 5740 5744 5747 5748 5752 5757 5761 5766 5767 5770 5773 5773 5774 5775 5778 5778 5779 5781
5749 5748 5745 5743 5743 5742 5742 5744 5742 5737 5734 5732 5730 5726 5721 5719 5716 5711 5708 5709 5711 5713 5715 5717 5719 5721 5722 5724 5726 5730 5733 5738 5742 5744 5748 5752 5755 5758 5761 5762 5766 5766 5768 5769 5771 5772 5774 5776 5778
5742 5741 5742 5741 5739 5738 5738 5740 5739 5737 5734 5731 5730 5726 5722 5719 5716 5712 5709 5707 5708 5710 5712 5715 5717 5720 5721 5722 5725 5728 5731 5734 5736 5740 5744 5748 5751 5754 5757 5758 5760 5762 5764 5765 5767 5768 5770 5773 5776
5736 5738 5739 5740 5736 5733 5735 5736 5737 5735 5732 5729 5728 5726 5722 5719 5717 5713 5709 5708 5705 5708 5710 5713 5715 5718 5720 5722 5725 5727 5730 5734 5737 5740 5743 5746 5749 5752 5751 5753 5756 5758 5759 5760 5763 5765 5767 5768 5770
5732 5734 5736 5735 5733 5730 5733 5735 5735 5732 5730 5727 5727 5725 5723 5720 5719 5714 5712 5708 5707 5709 5709 5710 5712 5714 5717 5721 5723 5726 5728 5730 5732 5735 5738 5740 5741 5744 5746 5750 5752 5754 5755 5759 5760 5761 5762 5765 5767
5727 5730 5731 5732 5727 5727 5728 5731 5730 5730 5726 5725 5725 5724 5722 5719 5719 5717 5714 5713 5712 5713 5711 5711 5711 5713 5716 5718 5719 5723 5726 5728 5729 5733 5733 5735 5737 5740 5743 5746 5749 5750 5753 5755 5757 5759 5759 5760 5762
5722 5726 5725 5724 5721 5723 5724 5727 5729 5726 5725 5723 5722 5723 5722 5720 5718 5718 5717 5716 5717 5716 5713 5713 5715 5714 5716 5717 5720 5720 5723 5725 5727 5729 5730 5733 5736 5738 5740 5745 5747 5749 5753 5754 5756 5756 5755 5755 5756
5719 5716 5716 5717 5716 5717 5721 5720 5727 5724 5723 5721 5719 5720 5721 5720 5719 5717 5719 5718 5716 5714 5713 5716 5717 5717 5718 5719 5721 5723 5725 5728 5726 5728 5731 5735 5735 5738 5739 5744 5746 5750 5750 5751 5751 5749 5747 5747 5747
5708 5708 5708 5711 5712 5712 5718 5717 5724 5721 5719 5717 5718 5718 5718 5718 5718 5718 5717 5716 5717 5717 5717 5717 5718 5719 5719 5721 5724 5725 5726 5727 5727 5730 5732 5732 5735 5737 5740 5742 5743 5744 5745 5746 5745 5742 5741 5742 5742
5701 5705 5702 5704 5705 5709 5713 5713 5719 5719 5717 5715 5716 5716 5717 5716 5715 5716 5716 5716 5716 5716 5715 5715 5715 5717 5718 5722 5723 5727 5728 5728 5729 5730 5732 5734 5735 5737 5739 5740 5740 5740 5740 5739 5736 5736 5737 5736 5735
5696 5698 5697 5699 5701 5704 5702 5705 5714 5713 5715 5713 5713 5715 5716 5715 5715 5714 5714 5714 5715 5714 5714 5715 5717 5717 5718 5719 5719 5724 5725 5725 5726 5727 5729 5730 5730 5732 5734 5735 5735 5735 5733 5731 5729 5728 5729 5730 5728
5688 5688 5696 5694 5693 5693 5695 5701 5707 5710 5713 5712 5710 5712 5713 5714 5714 5714 5713 5713 5713 5713 5713 5713 5714 5715 5716 5717 5719 5719 5720 5720 5720 5721 5722 5724 5726 5727 5727 5728 5728 5726 5725 5724 5724 5721 5720 5721 5717
5677 5683 5685 5682 5683 5686 5688 5693 5702 5704 5707 5710 5709 5710 5710 5710 5710 5711 5711 5711 5711 5711 5711 5712 5712 5712 5713 5714 5714 5715 5715 5715 5715 5717 5718 5718 5718 5719 5718 5717 5717 5716 5718 5718 5714 5710 5710 5707 5709
5670 5672 5675 5677 5678 5677 5681 5686 5697 5697 5698 5703 5704 5706 5707 5707 5706 5707 5707 5707 5706 5705 5706 5707 5708 5708 5710 5710 5710 5711 5711 5711 5712 5713 5713 5714 5713 5713 5714 5714 5713 5712 5710 5708 5706 5702 5701 5701 5701
5658 5662 5667 5668 5670 5672 5675 5678 5690 5693 5691 5695 5698 5699 5701 5701 5702 5703 5703 5702 5700 5700 5700 5701 5702 5704 5705 5706 5706 5707 5707 5706 5706 5706 5707 5706 5708 5708 5708 5707 5705 5703 5699 5698 5696 5696 5694 5693 5692
Wind_Speed
26 27 30 32 31 32 32 32 29 28 26 24 24 22 20 18 18 20 22 22 24 24 27 34 28 29 30 31 32 34 32 24 26 23 26 26 19 14 11 9 7 7 9 11 14 14 15 16 15
26 28 29 29 30 31 32 29 25 24 21 22 21 17 17 17 19 21 22 25 29 31 32 33 28 30 32 35 34 33 33 26 27 30 30 28 24 16 11 8 6 8 11 12 15 15 15 17 18
26 28 27 27 30 31 30 26 22 21 18 17 20 20 19 18 18 20 23 24 30 36 39 36 40 37 37 40 36 30 30 32 30 31 31 30 26 18 13 8 7 7 9 14 14 14 15 17 19
26 26 24 26 30 33 30 25 16 14 15 15 15 16 18 20 22 23 27 31 27 36 35 36 41 42 44 44 40 35 28 29 31 32 34 28 22 18 13 11 9 9 13 14 16 15 16 22 23
25 22 23 26 30 32 33 27 16 15 20 17 15 17 21 25 25 25 27 26 32 27 36 36 29 35 39 41 36 38 33 29 30 33 30 26 25 19 17 15 10 10 11 16 17 20 19 20 23
23 20 23 25 29 34 35 20 18 18 18 17 18 22 22 25 20 24 22 25 22 19 20 40 36 37 42 43 41 39 35 31 27 35 33 28 22 24 21 16 14 11 12 18 20 19 19 21 22
20 21 23 25 28 32 30 17 16 21 21 18 19 20 19 19 20 22 22 24 23 13 15 30 34 34 43 35 40 39 38 32 29 34 34 33 29 27 24 17 13 13 13 18 18 19 19 22 24
19 20 24 26 29 28 28 20 18 18 16 16 17 15 16 18 21 20 20 24 26 9 9 17 29 34 39 52 30 40 32 34 34 34 36 32 29 29 25 15 12 13 17 19 19 22 21 22 21
21 21 23 27 30 26 24 22 19 18 17 14 16 15 17 16 20 18 17 18 21 8 1 6 6 9 32 44 43 49 40 30 26 41 41 38 34 30 21 18 15 15 19 21 20 25 26 20 22
20 21 21 25 30 26 16 23 18 19 13 11 15 16 17 21 18 16 16 14 11 5 6 3 2 6 4 27 36 32 35 34 35 40 44 41 31 32 25 20 17 18 23 19 20 24 25 23 24
17 20 21 25 32 30 19 19 20 20 14 15 17 21 23 24 16 12 15 12 10 7 6 3 3 2 7 18 33 46 46 46 44 42 39 36 38 35 24 21 21 19 17 13 15 23 24 23 24
15 20 22 22 28 30 23 22 20 14 14 17 21 20 24 18 6 7 9 11 3 8 10 4 2 1 3 7 12 40 52 57 42 49 48 39 35 31 23 25 26 25 20 17 19 23 25 26 26
17 18 22 22 23 24 18 16 8 10 15 21 23 20 12 9 6 7 7 6 8 5 8 6 1 8 3 5 9 18 59 46 48 43 41 34 43 30 29 30 30 30 26 24 24 24 24 26 27
20 19 21 22 21 23 18 11 6 11 14 16 16 13 11 11 10 9 8 5 6 5 5 7 6 6 8 6 4 27 51 50 47 37 32 44 46 33 35 38 26 28 26 25 29 28 25 25 27
22 20 22 22 20 24 19 12 6 8 12 14 14 9 10 11 13 13 11 7 6 7 6 8 10 9 12 11 14 31 30 41 43 37 38 39 41 33 37 38 34 25 26 24 29 27 22 23 24
23 22 24 21 20 21 17 13 9 6 11 14 12 12 8 10 12 16 15 9 7 9 8 9 13 11 15 18 18 17 22 23 22 25 19 27 31 31 31 27 28 26 22 27 27 25 21 21 22
23 23 25 23 20 20 18 13 12 7 9 8 10 13 13 14 13 14 16 14 11 11 13 12 14 16 17 18 23 22 17 17 24 21 21 24 27 24 24 24 27 23 24 26 26 24 23 22 23
26 25 24 22 24 23 19 12 16 8 11 5 7 11 12 9 12 15 15 10 8 12 14 14 14 17 20 18 19 23 21 21 25 22 25 28 28 28 30 28 30 29 27 26 24 21 21 22 23
31 23 23 18 25 25 20 11 16 9 7 5 7 7 9 9 8 10 13 9 2 8 12 15 14 16 22 19 14 14 19 22 24 25 26 29 33 35 32 28 27 31 29 27 21 16 20 22 22
30 24 21 21 23 23 18 13 12 13 7 4 7 7 7 6 7 7 10 12 7 9 12 13 13 12 11 15 19 14 19 21 26 22 27 24 24 29 26 27 27 27 23 19 17 19 22 22 24
30 22 25 24 28 27 20 15 17 18 11 6 7 7 8 4 5 8 7 8 9 8 10 9 9 9 12 15 15 14 17 22 24 30 26 24 22 24 21 18 19 16 16 17 21 23 22 22 23
30 22 27 28 32 29 22 13 16 15 10 8 6 9 9 6 3 6 7 5 3 8 12 11 13 14 14 16 17 18 16 16 16 17 17 14 14 12 12 14 14 17 21 21 23 22 21 24 26
25 30 31 31 33 29 20 22 16 17 11 12 13 12 11 9 8 3 2 4 3 3 5 6 7 8 9 9 7 6 8 7 8 8 11 13 12 14 16 19 19 20 18 21 23 23 22 25 26
30 34 35 32 33 29 17 24 14 13 13 12 9 11 11 10 7 6 5 3 2 3 4 4 4 4 6 7 9 10 11 11 12 13 13 13 14 16 17 17 18 20 21 23 24 24 23 24 25
34 34 38 34 34 28 23 24 17 15 11 12 8 10 11 7 8 10 6 6 6 2 1 2 3 3 5 6 9 11 13 14 14 12 12 13 13 14 16 18 17 19 23 24 26 28 29 28 32
36 37 39 36 33 33 34 26 13 26 14 14 11 11 13 13 12 11 9 9 8 8 8 6 5 5 5 6 7 9 11 11 11 11 12 12 13 13 16 19 21 24 26 25 28 32 30 41 40
38 40 35 36 37 38 38 29 20 25 17 19 17 13 15 14 13 14 9 9 8 9 10 10 8 8 10 12 10 9 8 9 10 9 9 11 12 16 19 21 24 27 29 33 35 39 40 40 41
41 39 39 43 43 41 40 33 23 24 27 20 21 18 17 16 20 18 18 16 15 17 16 14 11 12 11 11 12 13 13 13 15 14 14 15 17 18 21 25 31 36 39 40 36 46 42 45 40
43 44 43 43 43 44 40 36 23 27 29 27 23 23 24 18 19 19 18 19 22 23 24 22 18 17 15 16 19 19 19 19 19 16 17 18 20 22 24 28 33 35 44 40 38 29 34 40 41
48 48 45 47 46 43 41 39 26 24 32 32 31 23 23 21 17 15 15 18 19 17 15 21 22 21 21 23 24 24 24 20 19 17 19 21 23 24 26 32 36 39 33 33 22 25 26 32 36
Wind_Direction
307 314 316 314 312 311 311 306 308 309 306 301 293 282 283 262 267 267 268 250 247 262 255 259 264 261 262 267 262 264 258 255 255 243 214 200 195 193 192 202 233 249 261 275 271 270 276 280 290
310 314 315 315 310 311 307 308 311 307 304 299 272 288 266 263 276 273 264 259 253 255 257 260 262 263 256 258 253 249 248 243 240 240 215 199 199 196 198 208 224 245 264 264 263 268 272 273 277
310 312 315 311 309 308 304 306 312 309 302 290 269 277 286 283 289 291 273 273 258 253 250 250 250 254 253 252 253 249 243 245 231 235 222 197 196 195 199 209 225 243 259 261 265 276 273 277 277
311 313 309 307 307 310 307 300 303 309 287 282 271 281 289 299 304 301 289 295 274 259 255 237 245 249 246 258 262 261 254 259 252 241 212 205 188 193 192 215 227 247 261 275 279 275 263 260 264
312 311 304 305 309 307 302 303 311 294 292 290 285 289 299 303 308 302 299 289 279 274 251 238 227 244 243 249 249 257 256 265 246 223 204 217 201 199 202 218 213 240 260 272 271 266 263 260 257
308 304 301 305 310 307 300 312 315 308 300 303 295 292 301 305 306 306 318 315 305 304 259 226 230 229 245 244 246 249 246 250 229 220 219 213 199 211 208 213 218 243 263 268 259 260 261 262 262
303 302 302 306 311 304 302 317 317 303 311 329 315 309 302 305 306 311 318 318 313 303 240 236 231 234 241 255 240 249 244 237 241 216 211 213 209 215 213 210 220 232 257 260 266 272 274 273 267
302 299 302 308 312 311 311 313 312 312 321 323 324 316 307 308 310 310 318 316 326 339 232 235 236 247 238 239 246 252 244 236 218 220 200 199 205 223 218 219 234 235 254 266 264 268 271 273 264
301 299 303 312 314 321 317 302 310 311 333 326 319 302 296 301 309 305 314 311 316 2 300 221 227 240 231 218 232 237 230 218 224 200 203 211 214 222 226 223 220 240 255 261 270 273 273 275 273
298 300 307 318 316 320 314 294 308 313 330 319 305 294 302 296 299 309 322 317 304 29 28 55 300 217 227 220 213 220 211 210 195 208 209 207 218 225 224 225 229 243 256 257 268 266 272 277 280
300 301 309 320 318 316 304 294 298 306 317 304 303 294 286 282 304 316 325 324 309 39 351 352 355 304 337 202 210 212 214 216 206 205 205 211 211 220 217 227 234 236 242 247 260 257 262 272 274
298 295 305 313 319 315 312 295 294 302 312 313 307 297 293 290 272 308 324 319 292 298 301 293 59 254 336 218 182 222 204 199 199 211 208 205 210 220 216 226 233 233 237 259 277 270 258 260 263
291 288 300 306 316 307 302 296 305 306 313 308 304 298 301 308 303 302 313 313 291 262 265 261 38 47 4 189 238 206 200 196 197 209 210 215 215 212 220 227 234 242 250 258 271 272 264 258 251
288 288 292 300 313 305 311 303 318 307 311 323 316 308 294 298 317 300 295 295 263 228 225 230 185 94 117 173 172 190 199 187 201 211 221 219 227 224 221 228 232 241 249 261 268 268 265 255 238
280 284 290 299 313 312 326 304 295 309 315 329 321 305 308 313 319 299 294 286 252 238 232 204 188 130 112 118 137 178 184 205 206 222 226 229 213 230 233 232 240 252 258 261 264 261 259 256 235
274 280 284 294 305 309 309 306 277 321 315 336 335 345 351 326 327 306 291 289 247 233 225 206 193 177 142 134 132 161 177 196 216 211 205 218 233 233 229 232 236 237 246 258 257 253 253 243 222
272 269 274 285 292 287 290 295 271 306 314 352 348 349 10 6 353 336 312 287 243 226 225 206 189 194 180 162 165 160 156 184 190 176 191 208 210 210 223 231 230 234 253 250 248 247 242 227 226
258 259 267 285 290 288 296 273 267 283 295 331 341 342 358 14 357 354 339 302 243 230 219 214 198 193 194 172 174 182 188 190 185 197 204 212 219 226 232 238 241 233 245 242 240 239 233 225 227
251 263 265 276 275 286 286 278 260 250 268 305 305 326 341 6 8 6 352 357 154 203 201 210 219 200 195 193 187 195 205 200 202 211 212 217 219 224 233 242 242 244 239 237 234 219 224 229 231
254 264 267 268 272 285 287 265 253 232 244 264 283 288 315 2 11 25 13 28 77 173 178 180 197 194 191 207 218 225 214 218 212 209 217 217 222 227 236 243 244 247 234 209 206 220 233 242 245
255 267 272 268 268 277 284 262 247 239 230 239 261 276 289 325 5 31 31 43 84 128 146 157 175 198 201 201 207 217 226 226 221 229 221 223 229 234 233 236 237 213 215 219 228 233 242 252 256
255 269 266 270 271 275 285 279 246 236 245 231 251 264 273 282 315 26 40 34 89 122 123 132 147 145 148 149 159 162 175 180 180 187 179 180 181 186 191 212 226 227 230 235 245 252 256 260 263
245 255 256 259 266 268 272 278 251 237 244 238 247 269 274 260 268 321 34 84 71 64 101 126 140 142 143 145 157 165 184 188 167 177 188 198 199 203 209 224 232 241 244 248 253 257 261 264 265
232 243 254 256 262 267 268 265 231 225 229 237 248 265 269 268 253 262 290 335 61 111 134 146 150 152 163 177 192 199 203 203 196 199 209 212 219 223 228 239 245 245 250 257 266 266 259 261 261
235 239 252 257 263 272 268 259 247 245 230 208 240 262 273 283 260 250 261 291 308 317 21 141 146 173 181 198 200 207 211 207 208 210 214 225 232 240 249 252 257 256 254 262 263 267 264 262 262
244 245 251 260 268 273 267 254 255 250 232 206 230 251 273 275 282 255 262 274 281 284 278 266 243 213 210 219 216 217 213 211 218 221 228 238 243 249 257 259 266 268 270 273 274 276 269 267 269
238 246 253 255 257 259 260 254 252 246 237 214 209 237 240 256 265 268 253 267 276 283 276 269 262 250 241 239 232 236 248 251 250 255 260 266 273 276 281 283 283 282 278 277 276 275 274 279 259
236 239 242 247 253 256 256 255 256 244 250 231 219 226 226 248 252 254 256 262 268 275 273 269 260 247 253 262 261 249 246 249 255 261 270 277 277 281 290 296 292 290 289 282 304 277 280 258 271
232 237 241 245 249 251 254 254 239 245 245 237 229 224 222 248 245 253 257 266 275 274 262 252 247 249 250 250 251 248 251 251 255 260 272 276 277 277 278 285 286 284 280 275 276 306 271 283 281
224 230 235 246 249 257 259 255 254 250 246 251 254 239 239 249 254 258 269 291 282 278 262 239 244 252 255 254 260 268 263 259 271 267 272 279 283 283 284 288 284 295 283 285 288 282 274 271 274